Overview Statistics Trail Chart Weather Telemetry Raw packets
 

This is the latest recevied weather packets stored in our database for station/object N7BTW-13. If no packets are shown the sender has not sent any weather packets the latest 10 day(s).

<< 53 54 55 56 57 58 >>
Time Temp. Humidity Pressure Rain* Wind** Luminosity Snow
1787806211 21.11° C 64% - 0 mm - - -
1787805606 21.67° C 63% - 0 mm - - -
1787805010 21.67° C 62% - 0 mm - - -
1787804408 21.67° C 62% - 0 mm - - -
1787803815 22.22° C 62% - 0 mm - - -
1787803207 22.22° C 62% - 0 mm - - -
1787802606 22.78° C 61% - 0 mm - - -
1787802008 22.78° C 60% - 0 mm - - -
1787801411 23.33° C 60% - 0 mm - - -
1787800811 23.89° C 59% - 0 mm - - -
1787800206 24.44° C 58% - 0 mm - - -
1787799608 25° C 56% - 0 mm - - -
1787799008 25.56° C 53% - 0 mm - - -
1787798410 26.11° C 52% - 0 mm - - -
1787797809 26.11° C 52% - 0 mm - - -
1787797212 26.11° C 51% - 0 mm - - -
1787796608 28.33° C 48% - 0 mm - - -
1787796006 27.22° C 49% - 0 mm - - -
1787795407 27.78° C 49% - 0 mm - - -
1787794807 27.78° C 48% - 0 mm - - -
1787794210 28.89° C 46% - 0 mm - - -
1787793608 28.89° C 45% - 0 mm - - -
1787793009 28.89° C 46% - 0 mm - - -
1787792410 27.78° C 48% - 0 mm - - -
1787791811 28.89° C 46% - 0 mm - - -

* Rain latest hour (hover to see other rain measurements)
** Current wind speed in m/s (hover to see current wind gust speed)